Location: Lhota
(50.0887°N, 14.0116°E)
Time: 07:17:46
(UTC+00:00)

DELTA 2 DEB (DPAF) - Pass Details

Date: 19 May 2025
Orbit: 538 x 548 km, 98.4° (Epoch: 22 June)

Event Time Altitude Azimuth Distance (km) Brightness Sun altitude
Rises 21:05:04 0° 16° (NNE) 2,732 8.1 -15.4°
Maximum altitude 21:11:09 69° 103° (ESE) 590 3.8 -15.9°
Enters shadow 21:13:03 29° 180° (S) 1,018 4.7 -16.0°
